User: anonymous   Login
Location: Melbourne
(37.8170°S, 144.9670°E)
Time: 15:38:54
(UTC+11:00)
Language:

Aureole 2 Rocket - Orbit

View from above orbital plane
View from above orbital plane
View from above satellite
View from above satellite

Ground track
Ground track

The orbit data is extracted from the following two-line orbital elements,

1 07004U 73107B   16337.87250167  .00007550  00000-0  12473-3 0  9992
2 07004  73.9355 128.2450 0190286  47.8211 313.8974 15.34539161207042
Epoch (UTC): 02 December 2016 20:56:24
Eccentricity: 0.0190286
inclination: 73.9355°
perigee height: 332 km
apogee height: 592 km
right ascension of ascending node: 128.2450°
argument of perigee: 47.8211°
revolutions per day: 15.34539161
mean anomaly at epoch: 313.8974°
orbit number at epoch: 20704

The dashed part of the orbit path shows where the satellite is in the earth's shadow,  

DLR